Angel Fire, NM

12:57 PM MST on February 08, 2016 (GMT -0700)
Angel Fire

Weather History for KAXX - June, 2013

Change the Weather History Date:

Sunday, June 23, 2013

  Actual Average (KSKX) Record (KSKX)
Temperature  
Mean Temperature 54 °F -  
Max Temperature 78 °F 81 °F 93 °F (2012)
Min Temperature 29 °F 43 °F 39 °F (1999)
Degree Days  
Heating Degree Days 12    
Growing Degree Days 4 (Base 50)    
Moisture  
Dew Point 14 °F    
Average Humidity 23    
Maximum Humidity 51    
Minimum Humidity 6    
Precipitation  
Precipitation 0.00 in - - ()
Sea Level Pressure  
Sea Level Pressure 30.21 in    
Wind  
Wind Speed 4 mph (WSW)    
Max Wind Speed 20 mph    
Max Gust Speed 28 mph    
Visibility 10 miles    
Events      
Averages and records for this station are not official NWS values.
T = Trace of Precipitation, MM = Missing Value Source: NWS Daily Summary

Daily Weather History Graph

Daily Weather History Graph

Search for Another Location

Airport or City:

Trip Planner

Search our weather history database for the weather conditions in past years. The results will help you decide how hot, cold, wet, or windy it might be!

Date:

Astronomy

Jun. 23, 2013 Rise Set
Actual Time 5:44 AM MDT 8:22 PM MDT
Civil Twilight 5:13 AM MDT 8:53 PM MDT
Nautical Twilight 4:35 AM MDT 9:31 PM MDT
Astronomical Twilight 3:53 AM MDT 10:13 PM MDT
Moon 8:39 PM MDT (6/23) 6:02 AM MDT (6/23)
Length of Visible Light 15h 39m
Length of Day
14h 38m
Full, 100% of the Moon is Illuminated
Jun 23
Full
Jun 29
Last Quarter
Jul 8
New
Jul 15
First Quarter
Jul 22
Full

Hourly Weather History & Observations

Time (MDT) Temp. Windchill Dew Point Humidity Pressure Visibility Wind Dir Wind Speed Gust Speed Precip Events Conditions
12:15 AM 40.6 °F 38.6 °F 11.7 °F 31% 30.23 in 10.0 mi South 3.5 mph - N/A   Clear
12:35 AM 38.7 °F - 12.2 °F 34% 30.22 in 10.0 mi Calm Calm - N/A   Clear
12:55 AM 39.6 °F - 11.7 °F 32% 30.22 in 10.0 mi Calm Calm - N/A   Clear
1:15 AM 37.4 °F 34.9 °F 11.1 °F 34% 30.22 in 10.0 mi South 3.5 mph - N/A   Clear
1:35 AM 35.4 °F - 12.7 °F 39% 30.22 in 10.0 mi Calm Calm - N/A   Clear
1:55 AM 34.5 °F - 11.8 °F 39% 30.22 in 10.0 mi Calm Calm - N/A   Clear
2:15 AM 36.7 °F - 10.8 °F 34% 30.23 in 10.0 mi Calm Calm - N/A   Clear
2:35 AM 32.4 °F - 12.0 °F 43% 30.23 in 10.0 mi Calm Calm - N/A   Clear
2:55 AM 33.6 °F 29.4 °F 12.6 °F 42% 30.23 in 10.0 mi SSE 4.6 mph - N/A   Clear
3:15 AM 31.8 °F - 12.2 °F 44% 30.24 in 10.0 mi Calm Calm - N/A   Clear
3:35 AM 32.7 °F - 12.2 °F 43% 30.24 in 10.0 mi Calm Calm - N/A   Clear
3:55 AM 31.6 °F - 12.0 °F 44% 30.24 in 10.0 mi Calm Calm - N/A   Clear
4:15 AM 31.6 °F - 12.2 °F 45% 30.24 in 10.0 mi Calm Calm - N/A   Clear
4:35 AM 30.7 °F - 12.2 °F 46% 30.24 in 10.0 mi Calm Calm - N/A   Clear
4:55 AM 30.9 °F - 12.2 °F 46% 30.24 in 10.0 mi Calm Calm - N/A   Clear
5:15 AM 29.5 °F - 12.7 °F 50% 30.24 in 10.0 mi Calm Calm - N/A   Clear
5:35 AM 30.2 °F - 13.1 °F 49% 30.24 in 10.0 mi Calm Calm - N/A   Clear
5:55 AM 30.9 °F 27.5 °F 13.3 °F 48% 30.25 in 10.0 mi SSE 3.5 mph - N/A   Clear
6:15 AM 29.8 °F - 13.8 °F 51% 30.26 in 10.0 mi Calm Calm - N/A   Clear
6:35 AM 33.6 °F - 14.9 °F 46% 30.26 in 10.0 mi Calm Calm - N/A   Clear
6:55 AM 36.0 °F - 15.1 °F 43% 30.26 in 10.0 mi Calm Calm - N/A   Clear
7:15 AM 38.8 °F - 14.7 °F 37% 30.27 in 10.0 mi Calm Calm - N/A   Clear
7:35 AM 43.7 °F - 15.8 °F 33% 30.26 in 10.0 mi Calm Calm - N/A   Clear
7:55 AM 47.5 °F - 15.8 °F 28% 30.27 in 10.0 mi Calm Calm - N/A   Clear
8:15 AM 50.2 °F - 16.2 °F 26% 30.27 in 10.0 mi Calm Calm - N/A   Clear
8:35 AM 54.1 °F - 16.3 °F 23% 30.27 in 10.0 mi Calm Calm - N/A   Clear
8:55 AM 56.3 °F - 17.6 °F 22% 30.27 in 10.0 mi Calm Calm - N/A   Clear
9:15 AM 58.8 °F - 18.5 °F 21% 30.27 in 10.0 mi Calm Calm - N/A   Clear
9:35 AM 63.3 °F - 20.7 °F 19% 30.26 in 10.0 mi Calm Calm - N/A   Clear
9:55 AM 69.6 °F - 16.2 °F 13% 30.26 in 10.0 mi Calm Calm - N/A   Clear
10:15 AM 70.9 °F - 15.3 °F 12% 30.25 in 10.0 mi South 10.4 mph 16.1 mph N/A   Clear
10:35 AM 72.1 °F - 16.0 °F 12% 30.24 in 10.0 mi WSW 6.9 mph - N/A   Clear
10:55 AM 72.0 °F - 15.8 °F 12% 30.24 in 10.0 mi WSW 8.1 mph 20.7 mph N/A   Clear
11:15 AM 72.7 °F - 15.6 °F 11% 30.24 in 10.0 mi West 4.6 mph 20.7 mph N/A   Clear
11:35 AM 73.6 °F - 17.8 °F 12% 30.23 in 10.0 mi Calm Calm - N/A   Clear
11:55 AM 74.3 °F - 18.0 °F 12% 30.23 in 10.0 mi SW 8.1 mph 19.6 mph N/A   Clear
12:15 PM 75.0 °F - 18.9 °F 12% 30.22 in 10.0 mi West 15.0 mph 19.6 mph N/A   Clear
12:35 PM 74.8 °F - 19.0 °F 12% 30.21 in 10.0 mi North 6.9 mph 17.3 mph N/A   Clear
12:55 PM 75.7 °F - 20.5 °F 13% 30.21 in 10.0 mi West 11.5 mph 20.7 mph N/A   Clear
1:15 PM 75.0 °F - 19.2 °F 12% 30.20 in 10.0 mi WSW 12.7 mph 21.9 mph N/A   Clear
1:35 PM 76.8 °F - 19.4 °F 12% 30.20 in 10.0 mi WSW 15.0 mph 24.2 mph N/A   Clear
1:55 PM 76.8 °F - 17.8 °F 11% 30.19 in 10.0 mi West 13.8 mph 24.2 mph N/A   Clear
2:15 PM 77.4 °F - 17.4 °F 11% 30.18 in 10.0 mi West 19.6 mph 24.2 mph N/A   Clear
2:35 PM 77.7 °F - 17.6 °F 10% 30.18 in 10.0 mi West 13.8 mph 24.2 mph N/A   Clear
2:55 PM 77.0 °F - 15.3 °F 10% 30.18 in 10.0 mi West 16.1 mph 27.6 mph N/A   Clear
3:15 PM 77.2 °F - 13.5 °F 9% 30.17 in 10.0 mi NW 4.6 mph 24.2 mph N/A   Clear
3:35 PM 77.0 °F - 14.4 °F 9% 30.16 in 10.0 mi NW 10.4 mph 20.7 mph N/A   Clear
3:55 PM 77.7 °F - 13.6 °F 9% 30.15 in 10.0 mi WNW 18.4 mph 24.2 mph N/A   Clear
4:15 PM 78.6 °F - 11.7 °F 8% 30.15 in 10.0 mi WNW 15.0 mph 26.5 mph N/A   Clear
4:35 PM 77.5 °F - 11.1 °F 8% 30.15 in 10.0 mi WSW 13.8 mph 23.0 mph N/A   Clear
4:55 PM 78.8 °F - 10.9 °F 8% 30.14 in 10.0 mi WSW 13.8 mph 20.7 mph N/A   Clear
5:15 PM 77.5 °F - 7.3 °F 7% 30.14 in 10.0 mi WSW 17.3 mph 24.2 mph N/A   Clear
5:35 PM 77.4 °F - 5.5 °F 6% 30.14 in 10.0 mi WSW 10.4 mph 24.2 mph N/A   Clear
5:55 PM 77.2 °F - 11.3 °F 8% 30.14 in 10.0 mi WSW 12.7 mph 23.0 mph N/A   Clear
6:15 PM 76.3 °F - 9.5 °F 8% 30.14 in 10.0 mi West 15.0 mph 25.3 mph N/A   Clear
6:35 PM 75.4 °F - 9.5 °F 8% 30.14 in 10.0 mi SW 11.5 mph 23.0 mph N/A   Clear
6:55 PM 74.7 °F - 10.9 °F 9% 30.15 in 10.0 mi WSW 12.7 mph 19.6 mph N/A   Clear
7:15 PM 73.9 °F - 10.6 °F 9% 30.15 in 10.0 mi SSW 9.2 mph - N/A   Clear
7:35 PM 72.7 °F - 10.6 °F 9% 30.16 in 10.0 mi SSW 10.4 mph - N/A   Clear
7:55 PM 70.9 °F - 9.7 °F 9% 30.16 in 10.0 mi SSW 9.2 mph 16.1 mph N/A   Clear
8:15 PM 66.4 °F - 10.4 °F 11% 30.16 in 10.0 mi SW 6.9 mph - N/A   Clear
8:35 PM 66.9 °F - 8.8 °F 10% 30.17 in 10.0 mi SW 10.4 mph - N/A   Clear
8:55 PM 62.1 °F - 10.2 °F 13% 30.17 in 10.0 mi Calm Calm - N/A   Clear
9:15 PM 56.3 °F - 11.7 °F 17% 30.18 in 10.0 mi Calm Calm - N/A   Clear
9:35 PM 56.3 °F - 9.9 °F 16% 30.19 in 10.0 mi Calm Calm - N/A   Clear
9:55 PM 49.1 °F - 15.6 °F 26% 30.19 in 10.0 mi Calm Calm - N/A   Clear
10:15 PM 48.2 °F - 13.5 °F 25% 30.19 in 10.0 mi Calm Calm - N/A   Clear
10:35 PM 46.6 °F - 13.1 °F 26% 30.20 in 10.0 mi Calm Calm - N/A   Clear
10:55 PM 46.6 °F - 13.1 °F 26% 30.19 in 10.0 mi Calm Calm - N/A   Clear
11:15 PM 46.9 °F - 12.7 °F 25% 30.19 in 10.0 mi Calm Calm - N/A   Clear
11:35 PM 42.3 °F - 12.4 °F 30% 30.20 in 10.0 mi Calm Calm - N/A   Clear
11:55 PM 39.4 °F - 14.5 °F 36% 30.19 in 10.0 mi Calm Calm - N/A   Clear